When you browse on this site, cookies collect data to enhance your experience and personalize the content and advertising you see.
Visit our Privacy Policy to learn more. By continuing to use the site, you agree to this use of cookies and data.
  • In Hungary
  • List of Countries
  • For 7 days
  • Water Temperature
  • Weather Map
  • News
  • Weather Widgets
  • user-avatar
    Login

    Hourly Weather Frendshin

    Today, 12 November, Tuesday

    Time Temperature Precipitation Wind Pressure Humidity
    00:00 +26°C° 0.1 mm 4 mps 756 mmHg 96%
    01:00 +26°C° 0.1 mm 4 mps 755 mmHg 96%
    02:00 +26°C° 0 mm 4 mps 755 mmHg 97%
    03:00 +26°C° 0.3 mm 4 mps 755 mmHg 96%
    04:00 +26°C° 0.3 mm 3 mps 755 mmHg 96%
    05:00 +26°C° 0.3 mm 3 mps 755 mmHg 95%
    06:00 +27°C° 0.6 mm 3 mps 756 mmHg 92%
    07:00 +28°C° 0.6 mm 3 mps 756 mmHg 89%
    08:00 +29°C° 0 mm 3 mps 757 mmHg 87%
    09:00 +31°C° 0.1 mm 3 mps 756 mmHg 77%
    10:00 +33°C° 0.1 mm 4 mps 756 mmHg 68%
    11:00 +35°C° 0.1 mm 4 mps 756 mmHg 58%
    12:00 +35°C° 0.3 mm 4 mps 755 mmHg 60%
    13:00 +34°C° 0.3 mm 4 mps 755 mmHg 62%
    14:00 +34°C° 0.3 mm 4 mps 754 mmHg 64%
    15:00 +33°C° 0.1 mm 4 mps 754 mmHg 69%
    16:00 +32°C° 0.1 mm 4 mps 754 mmHg 74%
    17:00 +29°C° 0.1 mm 4 mps 754 mmHg 78%
    18:00 +29°C° 0 mm 4 mps 754 mmHg 82%
    19:00 +28°C° 0 mm 4 mps 755 mmHg 85%
    20:00 +27°C° 0 mm 3 mps 756 mmHg 88%
    21:00 +27°C° 0 mm 3 mps 756 mmHg 89%
    22:00 +27°C° 0 mm 4 mps 756 mmHg 90%
    23:00 +27°C° 0 mm 4 mps 756 mmHg 91%

    Tomorrow, 13 November, Wednesday

    Time Temperature Precipitation Wind Pressure Humidity
    00:00 +27°C° 0.1 mm 4 mps 755 mmHg 91%
    01:00 +27°C° 0.1 mm 4 mps 755 mmHg 92%
    02:00 +27°C° 0.1 mm 3 mps 755 mmHg 93%
    03:00 +27°C° 0 mm 3 mps 755 mmHg 94%
    04:00 +27°C° 0 mm 3 mps 755 mmHg 95%
    05:00 +26°C° 0 mm 3 mps 756 mmHg 96%
    06:00 +28°C° 0 mm 3 mps 756 mmHg 89%
    07:00 +29°C° 0 mm 3 mps 756 mmHg 81%
    08:00 +31°C° 0 mm 3 mps 757 mmHg 74%
    09:00 +33°C° 0 mm 3 mps 757 mmHg 67%
    10:00 +35°C° 0 mm 3 mps 757 mmHg 60%
    11:00 +36°C° 0 mm 3 mps 756 mmHg 53%
    12:00 +35°C° 0.3 mm 4 mps 756 mmHg 58%
    13:00 +35°C° 0.3 mm 4 mps 755 mmHg 63%
    14:00 +34°C° 0.3 mm 4 mps 754 mmHg 68%
    15:00 +33°C° 0.1 mm 4 mps 754 mmHg 72%
    16:00 +32°C° 0.1 mm 4 mps 754 mmHg 76%
    17:00 +29°C° 0.1 mm 4 mps 754 mmHg 80%
    18:00 +29°C° 0 mm 4 mps 754 mmHg 83%
    19:00 +29°C° 0 mm 4 mps 755 mmHg 86%
    20:00 +28°C° 0 mm 4 mps 755 mmHg 88%
    21:00 +28°C° 0 mm 4 mps 756 mmHg 90%
    22:00 +28°C° 0 mm 4 mps 756 mmHg 91%
    23:00 +28°C° 0 mm 5 mps 756 mmHg 92%

    Day after tomorrow, 14 November, Thursday

    Time Temperature Precipitation Wind Pressure Humidity
    00:00 +27°C° 0 mm 4 mps 755 mmHg 92%
    01:00 +27°C° 0 mm 4 mps 755 mmHg 93%
    02:00 +27°C° 0 mm 4 mps 755 mmHg 93%
    03:00 +27°C° 0 mm 4 mps 755 mmHg 94%
    04:00 +27°C° 0 mm 4 mps 755 mmHg 94%
    05:00 +27°C° 0 mm 4 mps 755 mmHg 95%
    06:00 +28°C° 0.5 mm 4 mps 756 mmHg 91%
    07:00 +29°C° 0.5 mm 4 mps 756 mmHg 87%
    08:00 +30°C° 0.5 mm 4 mps 757 mmHg 83%
    09:00 +32°C° 0.3 mm 4 mps 757 mmHg 78%
    10:00 +33°C° 0.3 mm 4 mps 757 mmHg 73%
    11:00 +34°C° 0.3 mm 4 mps 757 mmHg 68%
    12:00 +33°C° 0.3 mm 4 mps 756 mmHg 71%
    13:00 +33°C° 0.3 mm 4 mps 755 mmHg 73%
    14:00 +32°C° 0.3 mm 4 mps 754 mmHg 76%
    15:00 +30°C° 0 mm 4 mps 755 mmHg 78%
    16:00 +30°C° 0 mm 4 mps 755 mmHg 80%
    17:00 +29°C° 0 mm 4 mps 755 mmHg 81%
    18:00 +29°C° 0.1 mm 4 mps 755 mmHg 84%
    19:00 +29°C° 0.1 mm 4 mps 755 mmHg 86%
    20:00 +28°C° 0.1 mm 4 mps 755 mmHg 88%
    21:00 +28°C° 0 mm 4 mps 756 mmHg 89%
    22:00 +28°C° 0 mm 4 mps 756 mmHg 90%
    23:00 +28°C° 0 mm 4 mps 756 mmHg 91%

    15 November, Friday

    Time Temperature Precipitation Wind Pressure Humidity
    00:00 +28°C° 0 mm 4 mps 755 mmHg 91%
    01:00 +28°C° 0 mm 4 mps 755 mmHg 91%
    02:00 +27°C° 0 mm 4 mps 755 mmHg 91%
    03:00 +27°C° 0 mm 4 mps 755 mmHg 91%
    04:00 +27°C° 0 mm 4 mps 755 mmHg 92%
    05:00 +27°C° 0 mm 4 mps 755 mmHg 93%
    06:00 +28°C° 0.1 mm 4 mps 755 mmHg 91%
    07:00 +29°C° 0.1 mm 4 mps 756 mmHg 87%
    08:00 +30°C° 0.1 mm 4 mps 757 mmHg 82%
    09:00 +31°C° 0.3 mm 3 mps 756 mmHg 78%
    10:00 +33°C° 0.3 mm 3 mps 756 mmHg 74%
    11:00 +33°C° 0.3 mm 3 mps 756 mmHg 70%
    12:00 +33°C° 0.5 mm 3 mps 755 mmHg 73%
    13:00 +33°C° 0.5 mm 3 mps 755 mmHg 76%
    14:00 +31°C° 0.5 mm 3 mps 754 mmHg 78%
    15:00 +32°C° 0.1 mm 4 mps 754 mmHg 80%
    16:00 +30°C° 0.1 mm 4 mps 754 mmHg 81%
    17:00 +29°C° 0.1 mm 4 mps 754 mmHg 83%
    18:00 +28°C° 0 mm 4 mps 754 mmHg 85%
    19:00 +28°C° 0 mm 4 mps 754 mmHg 88%
    20:00 +27°C° 0 mm 3 mps 755 mmHg 90%
    21:00 +27°C° 0 mm 4 mps 755 mmHg 90%
    22:00 +27°C° 0 mm 4 mps 755 mmHg 90%
    23:00 +27°C° 0 mm 4 mps 754 mmHg 90%

    16 November, Saturday

    Time Temperature Precipitation Wind Pressure Humidity
    00:00 +27°C° 0 mm 3 mps 754 mmHg 91%
    01:00 +26°C° 0 mm 3 mps 753 mmHg 92%
    02:00 +26°C° 0 mm 3 mps 753 mmHg 92%
    03:00 +26°C° 0 mm 3 mps 753 mmHg 93%
    04:00 +26°C° 0 mm 3 mps 753 mmHg 94%
    05:00 +26°C° 0 mm 3 mps 754 mmHg 95%
    06:00 +27°C° 0 mm 3 mps 754 mmHg 89%
    07:00 +29°C° 0 mm 2 mps 755 mmHg 83%
    08:00 +30°C° 0 mm 2 mps 755 mmHg 77%
    09:00 +30°C° 0.6 mm 2 mps 755 mmHg 80%
    10:00 +30°C° 0.6 mm 2 mps 755 mmHg 83%
    11:00 +30°C° 0.6 mm 2 mps 755 mmHg 86%
    12:00 +30°C° 0.7 mm 2 mps 754 mmHg 86%
    13:00 +30°C° 0.7 mm 3 mps 753 mmHg 87%
    14:00 +30°C° 0.7 mm 3 mps 752 mmHg 87%
    15:00 +29°C° 0.2 mm 3 mps 752 mmHg 86%
    16:00 +29°C° 0.2 mm 3 mps 752 mmHg 85%
    17:00 +28°C° 0.2 mm 4 mps 752 mmHg 84%
    18:00 +28°C° 0 mm 3 mps 753 mmHg 87%
    19:00 +27°C° 0 mm 3 mps 753 mmHg 90%
    20:00 +26°C° 0 mm 3 mps 754 mmHg 93%
    21:00 +26°C° 0 mm 3 mps 754 mmHg 93%
    22:00 +26°C° 0 mm 3 mps 754 mmHg 93%
    23:00 +26°C° 0 mm 3 mps 754 mmHg 93%

    17 November, Sunday

    Time Temperature Precipitation Wind Pressure Humidity
    00:00 +26°C° 0 mm 3 mps 754 mmHg 94%
    01:00 +26°C° 0 mm 3 mps 753 mmHg 94%
    02:00 +26°C° 0 mm 3 mps 753 mmHg 95%
    03:00 +26°C° 0.5 mm 3 mps 753 mmHg 96%
    04:00 +26°C° 0.5 mm 2 mps 753 mmHg 96%
    05:00 +26°C° 0.5 mm 2 mps 754 mmHg 97%
    06:00 +27°C° 0.7 mm 2 mps 754 mmHg 94%
    07:00 +28°C° 0.7 mm 2 mps 755 mmHg 92%
    08:00 +29°C° 0.7 mm 2 mps 755 mmHg 89%
    09:00 +29°C° 0.6 mm 2 mps 755 mmHg 87%
    10:00 +30°C° 0.6 mm 3 mps 755 mmHg 84%
    11:00 +30°C° 0.6 mm 3 mps 755 mmHg 82%
    12:00 +31°C° 0.5 mm 3 mps 754 mmHg 76%
    13:00 +33°C° 0.5 mm 3 mps 753 mmHg 70%
    14:00 +34°C° 0.5 mm 2 mps 753 mmHg 64%
    15:00 +33°C° 0.3 mm 3 mps 753 mmHg 69%
    16:00 +30°C° 0.3 mm 3 mps 753 mmHg 75%
    17:00 +29°C° 0.3 mm 3 mps 753 mmHg 80%
    18:00 +28°C° 1.1 mm 3 mps 753 mmHg 85%
    19:00 +27°C° 1.1 mm 3 mps 754 mmHg 91%
    20:00 +26°C° 1.1 mm 3 mps 755 mmHg 96%
    21:00 +26°C° 1.4 mm 3 mps 755 mmHg 95%
    22:00 +26°C° 1.4 mm 3 mps 755 mmHg 95%
    23:00 +26°C° 1.4 mm 3 mps 755 mmHg 94%
    Show more